Flag for U.S.A. Weather past 2 weeks in Pasadena, California, U.S.A.

Now
63 °F

Partly sunny.


Feels Like: 63 °F
Forecast: 54 / 66 °F
Wind: 6 mph from East

Location: Burbank-Glendale-Pasadena Airport

Current Time: Jan 30, 2015 at 11:24:37 AM

Latest Report: Jan 30, 2015 at 10:53 AM


Visibility: 10 mi

Pressure: 29.88 "Hg

Humidity: 70%

Dew point: 53 °F

Location of PasadenaLocation

Historic Weather in Pasadena — Graph

°F

Pasadena temperature yesterday

Maximum temperature yesterday: 72 °F (at 12:53 PM)
Minimum temperature yesterday: 58 °F (at 4:53 AM)
Average temperature yesterday: 64 °F

Past Weeks' High & Low Weather Summary

 TemperatureHumidityPressure
High81 °F (Jan 24, 2:53 PM)100% (Jan 20, 8:53 AM)30.26 "Hg (Jan 20, 8:53 AM)
Low44 °F (Jan 23, 6:53 AM)10% (Jan 22, 11:53 AM)29.88 "Hg (Jan 20, 1:53 PM)
Average61 °F46%30.07 "Hg
* Reported Jan 15 9:53 AM — Jan 30 9:53 AM, Pasadena, Weather by CustomWeather, © 2014

Note: Actual official high and low records may vary slightly from our data, if they occured in-between our weather recording intervals... More about our weather records

Advertising

Pasadena weather history for previous 24 hours

 ConditionsComfort  
Time TempWeatherWind HumidityBarometerVisibility
9:53 AM
Jan 30
62 °FOvercast.No wind67%29.89 "Hg10 mi
8:53 AM61 °FMore clouds than sun.No wind67%29.90 "Hg10 mi
7:53 AM59 °FLight rain. Overcast.No wind75%29.90 "Hg10 mi
6:53 AM60 °FLight rain. Mostly cloudy.No wind65%29.89 "Hg10 mi
5:53 AM61 °FOvercast.5 mph60%29.88 "Hg10 mi
4:53 AM61 °FLight rain. Mostly cloudy.3 mph60%29.89 "Hg10 mi
3:53 AM62 °FLight rain. Overcast.8 mph58%29.90 "Hg10 mi
2:53 AM63 °FLight rain. Overcast.10 mph52%29.92 "Hg10 mi
1:53 AM62 °FOvercast.8 mph52%29.94 "Hg10 mi
12:53 AM62 °FOvercast.7 mph52%29.96 "Hg10 mi
11:53 PM
Jan 29
62 °FLight rain. Overcast.7 mph54%29.98 "Hg10 mi
10:53 PM63 °FLight rain. Overcast.5 mph52%30.00 "Hg10 mi
9:53 PM64 °FMostly cloudy.No wind50%30.00 "Hg10 mi
8:53 PM64 °FOvercast.No wind50%30.00 "Hg10 mi
7:53 PM64 °FPassing clouds.6 mph50%30.00 "Hg10 mi
6:53 PM66 °FMostly cloudy.3 mph42%29.99 "Hg10 mi
5:53 PM67 °FClear.6 mph41%29.97 "Hg10 mi
4:53 PM69 °FSunny.5 mph42%29.95 "Hg10 mi
3:53 PM72 °FSunny.7 mph31%29.95 "Hg10 mi
2:53 PM72 °FSunny.3 mph34%29.95 "Hg10 mi
1:53 PM72 °FSunny.3 mph34%29.95 "Hg10 mi
12:53 PM72 °FSunny.No wind34%29.97 "Hg10 mi
11:53 AM70 °FSunny.No wind34%30.00 "Hg10 mi
Weather by CustomWeather, © 2014

See weather overviewHow to use our weather pages